Regional Weather Roundup
Issued by NWS

Home | Current Version | Previous Version | Text Only | Print | Product List | Glossary Off
Versions: 1 2 3 4 5 6 7 8 9 10 11 12 13 14 15 16 17 18 19 20 21 22 23 24 25 26 27 28 29 30 31 32 33 34 35 36 37 38 39 40 41 42 43 44 45 46 47 48 49 50

000
ASUS43 KLSX 060107
RWRMO

WEATHER SUMMARY FOR MISSOURI
NATIONAL WEATHER SERVICE SPRINGFIELD MO
800 PM CDT SUN JUL 05 2015

NOTE: "FAIR" INDICATES FEW OR NO CLOUDS BELOW 12,000 FEET WITH NO
       SIGNIFICANT WEATHER AND/OR OBSTRUCTIONS TO VISIBILITY.
       CURRENT SKY AND/OR WEATHER CONDITIONS ARE NOT AVAILABLE FOR
       CHILLICOTHE AND FARMINGTON.

MOZ001>031-035>038-043-044-053-054-060200-
...NORTHERN AND WESTERN MISSOURI...

CITY           SKY/WX    TMP DP  RH WIND       PRES   REMARKS
KANSAS CTY INT PTCLDY    85  75  72 S15       29.89S HX  93
KANSAS C DTWN  CLEAR     88  74  63 S10G20    29.88S HX  96
LEE`S SUMMIT   CLEAR     86  74  67 S9        29.91S HX  94
ST JOSEPH      MOCLDY    87  75  67 S14       29.86S HX  96
CHILLICOTHE      N/A     85  73  67 VRB7G16   29.92S HX  91
KIRKSVILLE     PTCLDY    79  68  69 SE9       29.95F

$$
MOZ066>068-077>081-088>096-101>105-060200-
...SOUTHWEST MISSOURI...

CITY           SKY/WX    TMP DP  RH WIND       PRES   REMARKS
SPRINGFIELD    MOCLDY    74  68  81 S9        29.98F
JOPLIN         PTCLDY    77  66  68 SE6       29.95S

$$
MOZ032>034-039>042-045>050-055>058-069>072-060200-
...CENTRAL MISSOURI...

CITY           SKY/WX    TMP DP  RH WIND       PRES   REMARKS
COLUMBIA       CLEAR     81  71  71 S8        29.98R
JEFFERSON CITY CLEAR     83  70  64 SE6       29.96R
ROLLA          PTCLDY    79  72  79 SE3       30.00R
SEDALIA        CLEAR     83  74  74 SE12      29.96S
WHITEMAN AFB   CLEAR     83  74  73 S10G17    29.93R HX  90
OSAGE BEACH    MOCLDY    82  72  69 SW12      29.99S

$$
MOZ051-052-059>065-060200-
...EAST CENTRAL MISSOURI...

CITY           SKY/WX    TMP DP  RH WIND       PRES   REMARKS
ST LOUIS INTL  MOCLDY    84  66  54 S9        30.00S
SPIRIT OF STL  PTCLDY    81  70  69 SE3       29.98S HAZE
ST CHARLES     PTCLDY    81  70  69 SE3       29.98S

$$
MOZ072>076-082>087-097>100-106>115-060200-
...SOUTH CENTRAL AND SOUTHEAST MISSOURI...

CITY           SKY/WX    TMP DP  RH WIND       PRES   REMARKS
CAPE GIRARDEAU CLEAR     78  69  73 SE3       30.02R
FARMINGTON     CLEAR     77  70  78 S3        30.08R
POPLAR BLUFF   CLEAR     81  72  74 S5        30.01R
WEST PLAINS    CLOUDY    80  71  74 S7        30.05R

$$



USA.gov is the U.S. government's official web portal to all federal, state and local government web resources and services.